Year,Month,Day,Hour,Minute,Value (Times are PST for temperature in C)
2013,08,20,00,00,8.50
2013,08,20,00,01,8.70
2013,08,20,00,02,8.70
2013,08,20,00,03,8.70
2013,08,20,00,04,8.70
2013,08,20,00,05,8.70
2013,08,20,00,06,8.70
2013,08,20,00,07,8.70
2013,08,20,00,08,8.70
2013,08,20,00,09,8.70
2013,08,20,00,10,8.70
2013,08,20,00,11,8.70
2013,08,20,00,12,8.70
2013,08,20,00,13,8.70
2013,08,20,00,14,8.70
2013,08,20,00,15,8.70
2013,08,20,00,16,8.80
2013,08,20,00,17,8.80
2013,08,20,00,18,8.80
2013,08,20,00,19,8.80
2013,08,20,00,20,8.80
2013,08,20,00,21,8.80
2013,08,20,00,22,8.80
2013,08,20,00,23,8.80
2013,08,20,00,24,8.80
2013,08,20,00,25,8.80
2013,08,20,00,26,8.80
2013,08,20,00,27,8.80
2013,08,20,00,28,8.80
2013,08,20,00,29,8.80
2013,08,20,00,30,8.80
2013,08,20,00,31,8.80
2013,08,20,00,32,8.80
2013,08,20,00,33,8.80
2013,08,20,00,34,8.80
2013,08,20,00,35,8.80
2013,08,20,00,36,8.80
2013,08,20,00,37,8.80
2013,08,20,00,38,8.80
2013,08,20,00,39,8.80
2013,08,20,00,40,8.80
2013,08,20,00,41,8.80
2013,08,20,00,42,8.80
2013,08,20,00,43,8.80
2013,08,20,00,44,8.80
2013,08,20,00,45,8.80
2013,08,20,00,46,8.90
2013,08,20,00,47,8.90
2013,08,20,00,48,8.90
2013,08,20,00,49,8.90
2013,08,20,00,50,8.90
2013,08,20,00,51,8.90
2013,08,20,00,52,8.90
2013,08,20,00,53,8.90
2013,08,20,00,54,8.90
2013,08,20,00,55,8.90
2013,08,20,00,56,8.90
2013,08,20,00,57,8.90
2013,08,20,00,58,8.90
2013,08,20,00,59,8.90
2013,08,20,01,00,8.90
2013,08,20,01,01,8.90
2013,08,20,01,02,9.00
2013,08,20,01,03,9.00
2013,08,20,01,04,9.00
2013,08,20,01,05,9.00
2013,08,20,01,06,9.00
2013,08,20,01,07,9.00
2013,08,20,01,08,9.00
2013,08,20,01,09,9.00
2013,08,20,01,10,9.00
2013,08,20,01,11,9.00
2013,08,20,01,12,9.00
2013,08,20,01,13,9.00
2013,08,20,01,14,9.00
2013,08,20,01,15,9.00
2013,08,20,01,16,8.90
2013,08,20,01,17,8.90
2013,08,20,01,18,8.90
2013,08,20,01,19,8.90
2013,08,20,01,20,8.90
2013,08,20,01,21,8.90
2013,08,20,01,22,8.90
2013,08,20,01,23,8.90
2013,08,20,01,24,8.90
2013,08,20,01,25,8.90
2013,08,20,01,26,8.90
2013,08,20,01,27,8.90
2013,08,20,01,28,8.90
2013,08,20,01,29,8.90
2013,08,20,01,30,8.90
2013,08,20,01,31,8.80
2013,08,20,01,32,8.80
2013,08,20,01,33,8.80
2013,08,20,01,34,8.80
2013,08,20,01,35,8.80
2013,08,20,01,36,8.80
2013,08,20,01,37,8.80
2013,08,20,01,38,8.80
2013,08,20,01,39,8.80
2013,08,20,01,40,8.80
2013,08,20,01,41,8.80
2013,08,20,01,42,8.80
2013,08,20,01,43,8.80
2013,08,20,01,44,8.80
2013,08,20,01,45,8.80
2013,08,20,01,47,8.60
2013,08,20,01,48,8.60
2013,08,20,01,49,8.60
2013,08,20,01,50,8.60
2013,08,20,01,51,8.60
2013,08,20,01,52,8.60
2013,08,20,01,53,8.60
2013,08,20,01,54,8.60
2013,08,20,01,55,8.60
2013,08,20,01,56,8.60
2013,08,20,01,57,8.60
2013,08,20,01,58,8.60
2013,08,20,01,59,8.60
2013,08,20,02,00,8.60
2013,08,20,02,01,8.30
2013,08,20,02,02,8.30
2013,08,20,02,03,8.30
2013,08,20,02,04,8.30
2013,08,20,02,05,8.30
2013,08,20,02,06,8.30
2013,08,20,02,07,8.30
2013,08,20,02,08,8.30
2013,08,20,02,09,8.30
2013,08,20,02,10,8.30
2013,08,20,02,11,8.30
2013,08,20,02,12,8.30
2013,08,20,02,13,8.30
2013,08,20,02,14,8.30
2013,08,20,02,15,8.30
2013,08,20,02,16,8.00
2013,08,20,02,17,8.00
2013,08,20,02,18,8.00
2013,08,20,02,19,8.00
2013,08,20,02,20,8.00
2013,08,20,02,21,8.00
2013,08,20,02,22,8.00
2013,08,20,02,23,8.00
2013,08,20,02,24,8.00
2013,08,20,02,25,8.00
2013,08,20,02,26,8.00
2013,08,20,02,27,8.00
2013,08,20,02,28,8.00
2013,08,20,02,29,8.00
2013,08,20,02,30,8.00
2013,08,20,02,31,7.60
2013,08,20,02,32,7.60
2013,08,20,02,33,7.60
2013,08,20,02,34,7.60
2013,08,20,02,35,7.60
2013,08,20,02,36,7.60
2013,08,20,02,37,7.60
2013,08,20,02,38,7.60
2013,08,20,02,39,7.60
2013,08,20,02,40,7.60
2013,08,20,02,41,7.60
2013,08,20,02,42,7.60
2013,08,20,02,43,7.60
2013,08,20,02,44,7.60
2013,08,20,02,45,7.60
2013,08,20,02,46,7.30
2013,08,20,02,47,7.30
2013,08,20,02,48,7.30
2013,08,20,02,49,7.30
2013,08,20,02,50,7.30
2013,08,20,02,51,7.30
2013,08,20,02,52,7.30
2013,08,20,02,53,7.30
2013,08,20,02,54,7.30
2013,08,20,02,55,7.30
2013,08,20,02,56,7.30
2013,08,20,02,57,7.30
2013,08,20,02,58,7.30
2013,08,20,02,59,7.30
2013,08,20,03,00,7.30
2013,08,20,03,01,6.80
2013,08,20,03,02,6.80
2013,08,20,03,03,6.80
2013,08,20,03,04,6.80
2013,08,20,03,05,6.80
2013,08,20,03,06,6.80
2013,08,20,03,07,6.80
2013,08,20,03,08,6.80
2013,08,20,03,09,6.80
2013,08,20,03,10,6.80
2013,08,20,03,11,6.80
2013,08,20,03,12,6.80
2013,08,20,03,13,6.80
2013,08,20,03,14,6.80
2013,08,20,03,15,6.80
2013,08,20,03,16,6.80
2013,08,20,03,17,6.60
2013,08,20,03,18,6.60
2013,08,20,03,19,6.60
2013,08,20,03,20,6.60
2013,08,20,03,21,6.60
2013,08,20,03,22,6.60
2013,08,20,03,23,6.60
2013,08,20,03,24,6.60
2013,08,20,03,25,6.60
2013,08,20,03,26,6.60
2013,08,20,03,27,6.60
2013,08,20,03,28,6.60
2013,08,20,03,29,6.60
2013,08,20,03,30,6.60
2013,08,20,03,31,6.60
2013,08,20,03,32,6.40
2013,08,20,03,33,6.40
2013,08,20,03,34,6.40
2013,08,20,03,35,6.40
2013,08,20,03,36,6.40
2013,08,20,03,37,6.40
2013,08,20,03,38,6.40
2013,08,20,03,39,6.40
2013,08,20,03,40,6.40
2013,08,20,03,41,6.40
2013,08,20,03,42,6.40
2013,08,20,03,43,6.40
2013,08,20,03,44,6.40
2013,08,20,03,45,6.40
2013,08,20,03,46,6.30
2013,08,20,03,47,6.30
2013,08,20,03,48,6.30
2013,08,20,03,49,6.30
2013,08,20,03,50,6.30
2013,08,20,03,51,6.30
2013,08,20,03,52,6.30
2013,08,20,03,53,6.30
2013,08,20,03,54,6.30
2013,08,20,03,55,6.30
2013,08,20,03,56,6.30
2013,08,20,03,57,6.30
2013,08,20,03,58,6.30
2013,08,20,03,59,6.30
2013,08,20,04,00,6.30
2013,08,20,04,01,6.30
2013,08,20,04,02,6.30
2013,08,20,04,03,6.30
2013,08,20,04,04,6.30
2013,08,20,04,05,6.30
2013,08,20,04,06,6.30
2013,08,20,04,07,6.30
2013,08,20,04,08,6.30
2013,08,20,04,09,6.30
2013,08,20,04,10,6.30
2013,08,20,04,11,6.30
2013,08,20,04,12,6.30
2013,08,20,04,13,6.30
2013,08,20,04,14,6.30
2013,08,20,04,15,6.30
2013,08,20,04,16,6.30
2013,08,20,04,17,6.60
2013,08,20,04,18,6.60
2013,08,20,04,19,6.60
2013,08,20,04,20,6.60
2013,08,20,04,21,6.60
2013,08,20,04,22,6.60
2013,08,20,04,23,6.60
2013,08,20,04,24,6.60
2013,08,20,04,25,6.60
2013,08,20,04,26,6.60
2013,08,20,04,27,6.60
2013,08,20,04,28,6.60
2013,08,20,04,29,6.60
2013,08,20,04,30,6.60
2013,08,20,04,31,6.80
2013,08,20,04,32,6.80
2013,08,20,04,33,6.80
2013,08,20,04,34,6.80
2013,08,20,04,35,6.80
2013,08,20,04,36,6.80
2013,08,20,04,37,6.80
2013,08,20,04,38,6.80
2013,08,20,04,39,6.80
2013,08,20,04,40,6.80
2013,08,20,04,41,6.80
2013,08,20,04,42,6.80
2013,08,20,04,43,6.80
2013,08,20,04,44,6.80
2013,08,20,04,45,6.80
2013,08,20,04,46,6.80
2013,08,20,04,47,6.80
2013,08,20,04,48,6.80
2013,08,20,04,49,6.80
2013,08,20,04,50,6.80
2013,08,20,04,51,6.80
2013,08,20,04,52,6.80
2013,08,20,04,53,6.80
2013,08,20,04,54,6.80
2013,08,20,04,55,6.80
2013,08,20,04,56,6.80
2013,08,20,04,57,6.80
2013,08,20,04,58,6.80
2013,08,20,04,59,6.80
2013,08,20,05,00,6.80
2013,08,20,05,01,6.80
2013,08,20,05,02,6.80
2013,08,20,05,03,6.80
2013,08,20,05,04,6.80
2013,08,20,05,05,6.80
2013,08,20,05,06,6.80
2013,08,20,05,07,6.80
2013,08,20,05,08,6.80
2013,08,20,05,09,6.80
2013,08,20,05,10,6.80
2013,08,20,05,11,6.80
2013,08,20,05,12,6.80
2013,08,20,05,13,6.80
2013,08,20,05,14,6.80
2013,08,20,05,15,6.80
2013,08,20,05,16,6.80
2013,08,20,05,17,6.80
2013,08,20,05,18,6.80
2013,08,20,05,19,6.80
2013,08,20,05,20,6.80
2013,08,20,05,21,6.80
2013,08,20,05,22,6.80
2013,08,20,05,23,6.80
2013,08,20,05,24,6.80
2013,08,20,05,25,6.80
2013,08,20,05,26,6.80
2013,08,20,05,27,6.80
2013,08,20,05,28,6.80
2013,08,20,05,29,6.80
2013,08,20,05,30,6.80
2013,08,20,05,31,6.90
2013,08,20,05,32,6.90
2013,08,20,05,33,6.90
2013,08,20,05,34,6.90
2013,08,20,05,35,6.90
2013,08,20,05,36,6.90
2013,08,20,05,37,6.90
2013,08,20,05,38,6.90
2013,08,20,05,39,6.90
2013,08,20,05,40,6.90
2013,08,20,05,41,6.90
2013,08,20,05,42,6.90
2013,08,20,05,43,6.90
2013,08,20,05,44,6.90
2013,08,20,05,45,6.90
2013,08,20,05,46,6.80
2013,08,20,05,47,6.80
2013,08,20,05,48,6.80
2013,08,20,05,49,6.80
2013,08,20,05,50,6.80
2013,08,20,05,51,6.80
2013,08,20,05,52,6.80
2013,08,20,05,53,6.80
2013,08,20,05,54,6.80
2013,08,20,05,55,6.80
2013,08,20,05,56,6.80
2013,08,20,05,57,6.80
2013,08,20,05,58,6.80
2013,08,20,05,59,6.80
2013,08,20,06,00,6.80
2013,08,20,06,01,6.70
2013,08,20,06,02,6.70
2013,08,20,06,03,6.70
2013,08,20,06,04,6.70
2013,08,20,06,05,6.70
2013,08,20,06,06,6.70
2013,08,20,06,07,6.70
2013,08,20,06,08,6.70
2013,08,20,06,09,6.70
2013,08,20,06,10,6.70
2013,08,20,06,11,6.70
2013,08,20,06,12,6.70
2013,08,20,06,13,6.70
2013,08,20,06,14,6.70
2013,08,20,06,15,6.70
2013,08,20,06,16,6.70
2013,08,20,06,17,6.60
2013,08,20,06,18,6.60
2013,08,20,06,19,6.60
2013,08,20,06,20,6.60
2013,08,20,06,21,6.60
2013,08,20,06,22,6.60
2013,08,20,06,23,6.60
2013,08,20,06,24,6.60
2013,08,20,06,25,6.60
2013,08,20,06,26,6.60
2013,08,20,06,27,6.60
2013,08,20,06,28,6.60
2013,08,20,06,29,6.60
2013,08,20,06,30,6.60
2013,08,20,06,31,6.40
2013,08,20,06,32,6.40
2013,08,20,06,33,6.40
2013,08,20,06,34,6.40
2013,08,20,06,35,6.40
2013,08,20,06,36,6.40
2013,08,20,06,37,6.40
2013,08,20,06,38,6.40
2013,08,20,06,39,6.40
2013,08,20,06,40,6.40
2013,08,20,06,41,6.40
2013,08,20,06,42,6.40
2013,08,20,06,43,6.40
2013,08,20,06,44,6.40
2013,08,20,06,45,6.40
2013,08,20,06,46,6.40
2013,08,20,06,47,6.40
2013,08,20,06,48,6.40
2013,08,20,06,49,6.40
2013,08,20,06,50,6.40
2013,08,20,06,51,6.40
2013,08,20,06,52,6.40
2013,08,20,06,53,6.40
2013,08,20,06,54,6.40
2013,08,20,06,55,6.40
2013,08,20,06,56,6.40
2013,08,20,06,57,6.40
2013,08,20,06,58,6.40
2013,08,20,06,59,6.40
2013,08,20,07,00,6.40
2013,08,20,07,02,6.50
2013,08,20,07,03,6.50
2013,08,20,07,04,6.50
2013,08,20,07,05,6.50
2013,08,20,07,06,6.50
2013,08,20,07,07,6.50
2013,08,20,07,08,6.50
2013,08,20,07,09,6.50
2013,08,20,07,10,6.50
2013,08,20,07,11,6.50
2013,08,20,07,12,6.50
2013,08,20,07,13,6.50
2013,08,20,07,14,6.50
2013,08,20,07,15,6.50
2013,08,20,07,16,6.50
2013,08,20,07,17,6.50
2013,08,20,07,18,6.50
2013,08,20,07,19,6.50
2013,08,20,07,20,6.50
2013,08,20,07,21,6.50
2013,08,20,07,22,6.50
2013,08,20,07,23,6.50
2013,08,20,07,24,6.50
2013,08,20,07,25,6.50
2013,08,20,07,26,6.50
2013,08,20,07,27,6.50
2013,08,20,07,28,6.50
2013,08,20,07,29,6.50
2013,08,20,07,30,6.50
2013,08,20,07,31,6.50
2013,08,20,07,32,6.50
2013,08,20,07,33,6.50
2013,08,20,07,34,6.50
2013,08,20,07,35,6.50
2013,08,20,07,36,6.50
2013,08,20,07,37,6.50
2013,08,20,07,38,6.50
2013,08,20,07,39,6.50
2013,08,20,07,40,6.50
2013,08,20,07,41,6.50
2013,08,20,07,42,6.50
2013,08,20,07,43,6.50
2013,08,20,07,44,6.50
2013,08,20,07,45,6.50
2013,08,20,07,46,6.60
2013,08,20,07,47,6.60
2013,08,20,07,48,6.60
2013,08,20,07,49,6.60
2013,08,20,07,50,6.60
2013,08,20,07,51,6.60
2013,08,20,07,52,6.60
2013,08,20,07,53,6.60
2013,08,20,07,54,6.60
2013,08,20,07,55,6.60
2013,08,20,07,56,6.60
2013,08,20,07,57,6.60
2013,08,20,07,58,6.60
2013,08,20,07,59,6.60
2013,08,20,08,00,6.60
2013,08,20,08,01,7.20
2013,08,20,08,02,7.20
2013,08,20,08,03,7.20
2013,08,20,08,04,7.20
2013,08,20,08,05,7.20
2013,08,20,08,06,7.20
2013,08,20,08,07,7.20
2013,08,20,08,08,7.20
2013,08,20,08,09,7.20
2013,08,20,08,10,7.20
2013,08,20,08,11,7.20
2013,08,20,08,12,7.20
2013,08,20,08,13,7.20
2013,08,20,08,14,7.20
2013,08,20,08,15,7.20
2013,08,20,08,16,8.40
2013,08,20,08,17,8.40
2013,08,20,08,18,8.40
2013,08,20,08,19,8.40
2013,08,20,08,20,8.40
2013,08,20,08,21,8.40
2013,08,20,08,22,8.40
2013,08,20,08,23,8.40
2013,08,20,08,24,8.40
2013,08,20,08,25,8.40
2013,08,20,08,26,8.40
2013,08,20,08,27,8.40
2013,08,20,08,28,8.40
2013,08,20,08,29,8.40
2013,08,20,08,30,8.40
2013,08,20,08,31,9.60
2013,08,20,08,32,9.60
2013,08,20,08,33,9.60
2013,08,20,08,34,9.60
2013,08,20,08,35,9.60
2013,08,20,08,36,9.60
2013,08,20,08,37,9.60
2013,08,20,08,38,9.60
2013,08,20,08,39,9.60
2013,08,20,08,40,9.60
2013,08,20,08,41,9.60
2013,08,20,08,42,9.60
2013,08,20,08,43,9.60
2013,08,20,08,44,9.60
2013,08,20,08,45,9.60
2013,08,20,08,46,10.70
2013,08,20,08,47,10.70
2013,08,20,08,48,10.70
2013,08,20,08,49,10.70
2013,08,20,08,50,10.70
2013,08,20,08,51,10.70
2013,08,20,08,52,10.70
2013,08,20,08,53,10.70
2013,08,20,08,54,10.70
2013,08,20,08,55,10.70
2013,08,20,08,56,10.70
2013,08,20,08,57,10.70
2013,08,20,08,58,10.70
2013,08,20,08,59,10.70
2013,08,20,09,00,10.70
2013,08,20,09,01,11.40
2013,08,20,09,02,11.40
2013,08,20,09,03,11.40
2013,08,20,09,04,11.40
2013,08,20,09,05,11.40
2013,08,20,09,06,11.40
2013,08,20,09,07,11.40
2013,08,20,09,08,11.40
2013,08,20,09,09,11.40
2013,08,20,09,10,11.40
2013,08,20,09,11,11.40
2013,08,20,09,12,11.40
2013,08,20,09,13,11.40
2013,08,20,09,14,11.40
2013,08,20,09,15,11.40
2013,08,20,09,16,11.40
2013,08,20,09,17,11.50
2013,08,20,09,18,11.50
2013,08,20,09,19,11.50
2013,08,20,09,20,11.50
2013,08,20,09,21,11.50
2013,08,20,09,22,11.50
2013,08,20,09,23,11.50
2013,08,20,09,24,11.50
2013,08,20,09,25,11.50
2013,08,20,09,26,11.50
2013,08,20,09,27,11.50
2013,08,20,09,28,11.50
2013,08,20,09,29,11.50
2013,08,20,09,30,11.50
2013,08,20,09,31,10.80
2013,08,20,09,32,10.80
2013,08,20,09,33,10.80
2013,08,20,09,34,10.80
2013,08,20,09,35,10.80
2013,08,20,09,36,10.80
2013,08,20,09,37,10.80
2013,08,20,09,38,10.80
2013,08,20,09,39,10.80
2013,08,20,09,40,10.80
2013,08,20,09,41,10.80
2013,08,20,09,42,10.80
2013,08,20,09,43,10.80
2013,08,20,09,44,10.80
2013,08,20,09,45,10.80
2013,08,20,09,46,10.80
2013,08,20,09,47,10.40
2013,08,20,09,48,10.40
2013,08,20,09,49,10.40
2013,08,20,09,50,10.40
2013,08,20,09,51,10.40
2013,08,20,09,52,10.40
2013,08,20,09,53,10.40
2013,08,20,09,54,10.40
2013,08,20,09,55,10.40
2013,08,20,09,56,10.40
2013,08,20,09,57,10.40
2013,08,20,09,58,10.40
2013,08,20,09,59,10.40
2013,08,20,10,00,10.40
2013,08,20,10,01,10.80
2013,08,20,10,02,10.80
2013,08,20,10,03,10.80
2013,08,20,10,04,10.80
2013,08,20,10,05,10.80
2013,08,20,10,06,10.80
2013,08,20,10,07,10.80
2013,08,20,10,08,10.80
2013,08,20,10,09,10.80
2013,08,20,10,10,10.80
2013,08,20,10,11,10.80
2013,08,20,10,12,10.80
2013,08,20,10,13,10.80
2013,08,20,10,14,10.80
2013,08,20,10,15,10.80
2013,08,20,10,16,10.80
2013,08,20,10,17,10.90
2013,08,20,10,18,10.90
2013,08,20,10,19,10.90
2013,08,20,10,20,10.90
2013,08,20,10,21,10.90
2013,08,20,10,22,10.90
2013,08,20,10,23,10.90
2013,08,20,10,24,10.90
2013,08,20,10,25,10.90
2013,08,20,10,26,10.90
2013,08,20,10,27,10.90
2013,08,20,10,28,10.90
2013,08,20,10,29,10.90
2013,08,20,10,30,10.90
2013,08,20,10,31,11.10
2013,08,20,10,32,11.10
2013,08,20,10,33,11.10
2013,08,20,10,34,11.10
2013,08,20,10,35,11.10
2013,08,20,10,36,11.10
2013,08,20,10,37,11.10
2013,08,20,10,38,11.10
2013,08,20,10,39,11.10
2013,08,20,10,40,11.10
2013,08,20,10,41,11.10
2013,08,20,10,42,11.10
2013,08,20,10,43,11.10
2013,08,20,10,44,11.10
2013,08,20,10,45,11.10
2013,08,20,10,46,11.60
2013,08,20,10,47,11.60
2013,08,20,10,48,11.60
2013,08,20,10,49,11.60
2013,08,20,10,50,11.60
2013,08,20,10,51,11.60
2013,08,20,10,52,11.60
2013,08,20,10,53,11.60
2013,08,20,10,54,11.60
2013,08,20,10,55,11.60
2013,08,20,10,56,11.60
2013,08,20,10,57,11.60
2013,08,20,10,58,11.60
2013,08,20,10,59,11.60
2013,08,20,11,00,11.60
2013,08,20,11,01,11.80
2013,08,20,11,02,11.80
2013,08,20,11,03,11.80
2013,08,20,11,04,11.80
2013,08,20,11,05,11.80
2013,08,20,11,06,11.80
2013,08,20,11,07,11.80
2013,08,20,11,08,11.80
2013,08,20,11,09,11.80
2013,08,20,11,10,11.80
2013,08,20,11,11,11.80
2013,08,20,11,12,11.80
2013,08,20,11,13,11.80
2013,08,20,11,14,11.80
2013,08,20,11,15,11.80
2013,08,20,11,16,11.80
2013,08,20,11,17,12.10
2013,08,20,11,18,12.10
2013,08,20,11,19,12.10
2013,08,20,11,20,12.10
2013,08,20,11,21,12.10
2013,08,20,11,22,12.10
2013,08,20,11,23,12.10
2013,08,20,11,24,12.10
2013,08,20,11,25,12.10
2013,08,20,11,26,12.10
2013,08,20,11,27,12.10
2013,08,20,11,28,12.10
2013,08,20,11,29,12.10
2013,08,20,11,30,12.10
2013,08,20,11,31,12.10
2013,08,20,11,32,12.20
2013,08,20,11,33,12.20
2013,08,20,11,34,12.20
2013,08,20,11,35,12.20
2013,08,20,11,36,12.20
2013,08,20,11,37,12.20
2013,08,20,11,38,12.20
2013,08,20,11,39,12.20
2013,08,20,11,40,12.20
2013,08,20,11,41,12.20
2013,08,20,11,42,12.20
2013,08,20,11,43,12.20
2013,08,20,11,44,12.20
2013,08,20,11,45,12.20
2013,08,20,11,46,12.70
2013,08,20,11,47,12.70
2013,08,20,11,48,12.70
2013,08,20,11,49,12.70
2013,08,20,11,50,12.70
2013,08,20,11,51,12.70
2013,08,20,11,52,12.70
2013,08,20,11,53,12.70
2013,08,20,11,54,12.70
2013,08,20,11,55,12.70
2013,08,20,11,56,12.70
2013,08,20,11,57,12.70
2013,08,20,11,58,12.70
2013,08,20,11,59,12.70
2013,08,20,12,00,12.70
2013,08,20,12,01,12.70
2013,08,20,12,02,12.60
2013,08,20,12,03,12.60
2013,08,20,12,04,12.60
2013,08,20,12,05,12.60
2013,08,20,12,06,12.60
2013,08,20,12,07,12.60
2013,08,20,12,08,12.60
2013,08,20,12,09,12.60
2013,08,20,12,10,12.60
2013,08,20,12,11,12.60
2013,08,20,12,12,12.60
2013,08,20,12,13,12.60
2013,08,20,12,14,12.60
2013,08,20,12,15,12.60
2013,08,20,12,16,13.20
2013,08,20,12,17,13.20
2013,08,20,12,18,13.20
2013,08,20,12,19,13.20
2013,08,20,12,20,13.20
2013,08,20,12,21,13.20
2013,08,20,12,22,13.20
2013,08,20,12,23,13.20
2013,08,20,12,24,13.20
2013,08,20,12,25,13.20
2013,08,20,12,26,13.20
2013,08,20,12,27,13.20
2013,08,20,12,28,13.20
2013,08,20,12,29,13.20
2013,08,20,12,30,13.20
2013,08,20,12,31,13.30
2013,08,20,12,32,13.30
2013,08,20,12,33,13.30
2013,08,20,12,34,13.30
2013,08,20,12,35,13.30
2013,08,20,12,36,13.30
2013,08,20,12,37,13.30
2013,08,20,12,38,13.30
2013,08,20,12,39,13.30
2013,08,20,12,40,13.30
2013,08,20,12,41,13.30
2013,08,20,12,42,13.30
2013,08,20,12,43,13.30
2013,08,20,12,44,13.30
2013,08,20,12,45,13.30
2013,08,20,12,46,13.60
2013,08,20,12,47,13.60
2013,08,20,12,48,13.60
2013,08,20,12,49,13.60
2013,08,20,12,50,13.60
2013,08,20,12,51,13.60
2013,08,20,12,52,13.60
2013,08,20,12,53,13.60
2013,08,20,12,54,13.60
2013,08,20,12,55,13.60
2013,08,20,12,56,13.60
2013,08,20,12,57,13.60
2013,08,20,12,58,13.60
2013,08,20,12,59,13.60
2013,08,20,13,00,13.60
2013,08,20,13,01,13.40
2013,08,20,13,02,13.40
2013,08,20,13,03,13.40
2013,08,20,13,04,13.40
2013,08,20,13,05,13.40
2013,08,20,13,06,13.40
2013,08,20,13,07,13.40
2013,08,20,13,08,13.40
2013,08,20,13,09,13.40
2013,08,20,13,10,13.40
2013,08,20,13,11,13.40
2013,08,20,13,12,13.40
2013,08,20,13,13,13.40
2013,08,20,13,14,13.40
2013,08,20,13,15,13.40
2013,08,20,13,17,13.60
2013,08,20,13,18,13.60
2013,08,20,13,19,13.60
2013,08,20,13,20,13.60
2013,08,20,13,21,13.60
2013,08,20,13,22,13.60
2013,08,20,13,23,13.60
2013,08,20,13,24,13.60
2013,08,20,13,25,13.60
2013,08,20,13,26,13.60
2013,08,20,13,27,13.60
2013,08,20,13,28,13.60
2013,08,20,13,29,13.60
2013,08,20,13,30,13.60
2013,08,20,13,31,14.20
2013,08,20,13,32,14.20
2013,08,20,13,33,14.20
2013,08,20,13,34,14.20
2013,08,20,13,35,14.20
2013,08,20,13,36,14.20
2013,08,20,13,37,14.20
2013,08,20,13,38,14.20
2013,08,20,13,39,14.20
2013,08,20,13,40,14.20
2013,08,20,13,41,14.20
2013,08,20,13,42,14.20
2013,08,20,13,43,14.20
2013,08,20,13,44,14.20
2013,08,20,13,45,14.20
2013,08,20,13,46,14.30
2013,08,20,13,47,14.30
2013,08,20,13,48,14.30
2013,08,20,13,49,14.30
2013,08,20,13,50,14.30
2013,08,20,13,51,14.30
2013,08,20,13,52,14.30
2013,08,20,13,53,14.30
2013,08,20,13,54,14.30
2013,08,20,13,55,14.30
2013,08,20,13,56,14.30
2013,08,20,13,57,14.30
2013,08,20,13,58,14.30
2013,08,20,13,59,14.30
2013,08,20,14,00,14.30
2013,08,20,14,01,14.40
2013,08,20,14,02,14.40
2013,08,20,14,03,14.40
2013,08,20,14,04,14.40
2013,08,20,14,05,14.40
2013,08,20,14,06,14.40
2013,08,20,14,07,14.40
2013,08,20,14,08,14.40
2013,08,20,14,09,14.40
2013,08,20,14,10,14.40
2013,08,20,14,11,14.40
2013,08,20,14,12,14.40
2013,08,20,14,13,14.40
2013,08,20,14,14,14.40
2013,08,20,14,15,14.40
2013,08,20,14,16,15.30
2013,08,20,14,17,15.30
2013,08,20,14,18,15.30
2013,08,20,14,19,15.30
2013,08,20,14,20,15.30
2013,08,20,14,21,15.30
2013,08,20,14,22,15.30
2013,08,20,14,23,15.30
2013,08,20,14,24,15.30
2013,08,20,14,25,15.30
2013,08,20,14,26,15.30
2013,08,20,14,27,15.30
2013,08,20,14,28,15.30
2013,08,20,14,29,15.30
2013,08,20,14,30,15.30
2013,08,20,14,31,15.30
2013,08,20,14,32,14.40
2013,08,20,14,33,14.40
2013,08,20,14,34,14.40
2013,08,20,14,35,14.40
2013,08,20,14,36,14.40
2013,08,20,14,37,14.40
2013,08,20,14,38,14.40
2013,08,20,14,39,14.40
2013,08,20,14,40,14.40
2013,08,20,14,41,14.40
2013,08,20,14,42,14.40
2013,08,20,14,43,14.40
2013,08,20,14,44,14.40
2013,08,20,14,45,14.40
2013,08,20,14,47,14.70
2013,08,20,14,48,14.70
2013,08,20,14,49,14.70
2013,08,20,14,50,14.70
2013,08,20,14,51,14.70
2013,08,20,14,52,14.70
2013,08,20,14,53,14.70
2013,08,20,14,54,14.70
2013,08,20,14,55,14.70
2013,08,20,14,56,14.70
2013,08,20,14,57,14.70
2013,08,20,14,58,14.70
2013,08,20,14,59,14.70
2013,08,20,15,00,14.70
2013,08,20,15,01,14.90
2013,08,20,15,02,14.90
2013,08,20,15,03,14.90
2013,08,20,15,04,14.90
2013,08,20,15,05,14.90
2013,08,20,15,06,14.90
2013,08,20,15,07,14.90
2013,08,20,15,08,14.90
2013,08,20,15,09,14.90
2013,08,20,15,10,14.90
2013,08,20,15,11,14.90
2013,08,20,15,12,14.90
2013,08,20,15,13,14.90
2013,08,20,15,14,14.90
2013,08,20,15,15,14.90
2013,08,20,15,16,14.60
2013,08,20,15,17,14.60
2013,08,20,15,18,14.60
2013,08,20,15,19,14.60
2013,08,20,15,20,14.60
2013,08,20,15,21,14.60
2013,08,20,15,22,14.60
2013,08,20,15,23,14.60
2013,08,20,15,24,14.60
2013,08,20,15,25,14.60
2013,08,20,15,26,14.60
2013,08,20,15,27,14.60
2013,08,20,15,28,14.60
2013,08,20,15,29,14.60
2013,08,20,15,30,14.60
2013,08,20,15,31,16.10
2013,08,20,15,32,16.10
2013,08,20,15,33,16.10
2013,08,20,15,34,16.10
2013,08,20,15,35,16.10
2013,08,20,15,36,16.10
2013,08,20,15,37,16.10
2013,08,20,15,38,16.10
2013,08,20,15,39,16.10
2013,08,20,15,40,16.10
2013,08,20,15,41,16.10
2013,08,20,15,42,16.10
2013,08,20,15,43,16.10
2013,08,20,15,44,16.10
2013,08,20,15,45,16.10
2013,08,20,15,46,15.70
2013,08,20,15,47,15.70
2013,08,20,15,48,15.70
2013,08,20,15,49,15.70
2013,08,20,15,50,15.70
2013,08,20,15,51,15.70
2013,08,20,15,52,15.70
2013,08,20,15,53,15.70
2013,08,20,15,54,15.70
2013,08,20,15,55,15.70
2013,08,20,15,56,15.70
2013,08,20,15,57,15.70
2013,08,20,15,58,15.70
2013,08,20,15,59,15.70
2013,08,20,16,00,15.70
2013,08,20,16,01,15.20
2013,08,20,16,02,15.20
2013,08,20,16,03,15.20
2013,08,20,16,04,15.20
2013,08,20,16,05,15.20
2013,08,20,16,06,15.20
2013,08,20,16,07,15.20
2013,08,20,16,08,15.20
2013,08,20,16,09,15.20
2013,08,20,16,10,15.20
2013,08,20,16,11,15.20
2013,08,20,16,12,15.20
2013,08,20,16,13,15.20
2013,08,20,16,14,15.20
2013,08,20,16,15,15.20
2013,08,20,16,16,16.30
2013,08,20,16,17,16.30
2013,08,20,16,18,16.30
2013,08,20,16,19,16.30
2013,08,20,16,20,16.30
2013,08,20,16,21,16.30
2013,08,20,16,22,16.30
2013,08,20,16,23,16.30
2013,08,20,16,24,16.30
2013,08,20,16,25,16.30
2013,08,20,16,26,16.30
2013,08,20,16,27,16.30
2013,08,20,16,28,16.30
2013,08,20,16,29,16.30
2013,08,20,16,30,16.30
2013,08,20,16,31,16.30
2013,08,20,16,32,15.90
2013,08,20,16,33,15.90
2013,08,20,16,34,15.90
2013,08,20,16,35,15.90
2013,08,20,16,36,15.90
2013,08,20,16,37,15.90
2013,08,20,16,38,15.90
2013,08,20,16,39,15.90
2013,08,20,16,40,15.90
2013,08,20,16,41,15.90
2013,08,20,16,42,15.90
2013,08,20,16,43,15.90
2013,08,20,16,44,15.90
2013,08,20,16,45,15.90
2013,08,20,16,46,16.70
2013,08,20,16,47,16.70
2013,08,20,16,48,16.70
2013,08,20,16,49,16.70
2013,08,20,16,50,16.70
2013,08,20,16,51,16.70
2013,08,20,16,52,16.70
2013,08,20,16,53,16.70
2013,08,20,16,54,16.70
2013,08,20,16,55,16.70
2013,08,20,16,56,16.70
2013,08,20,16,57,16.70
2013,08,20,16,58,16.70
2013,08,20,16,59,16.70
2013,08,20,17,00,16.70
2013,08,20,17,01,16.30
2013,08,20,17,02,16.30
2013,08,20,17,03,16.30
2013,08,20,17,04,16.30
2013,08,20,17,05,16.30
2013,08,20,17,06,16.30
2013,08,20,17,07,16.30
2013,08,20,17,08,16.30
2013,08,20,17,09,16.30
2013,08,20,17,10,16.30
2013,08,20,17,11,16.30
2013,08,20,17,12,16.30
2013,08,20,17,13,16.30
2013,08,20,17,14,16.30
2013,08,20,17,15,16.30
2013,08,20,17,16,16.10
2013,08,20,17,17,16.10
2013,08,20,17,18,16.10
2013,08,20,17,19,16.10
2013,08,20,17,20,16.10
2013,08,20,17,21,16.10
2013,08,20,17,22,16.10
2013,08,20,17,23,16.10
2013,08,20,17,24,16.10
2013,08,20,17,25,16.10
2013,08,20,17,26,16.10
2013,08,20,17,27,16.10
2013,08,20,17,28,16.10
2013,08,20,17,29,16.10
2013,08,20,17,30,16.10
2013,08,20,17,31,15.80
2013,08,20,17,32,15.80
2013,08,20,17,33,15.80
2013,08,20,17,34,15.80
2013,08,20,17,35,15.80
2013,08,20,17,36,15.80
2013,08,20,17,37,15.80
2013,08,20,17,38,15.80
2013,08,20,17,39,15.80
2013,08,20,17,40,15.80
2013,08,20,17,41,15.80
2013,08,20,17,42,15.80
2013,08,20,17,43,15.80
2013,08,20,17,44,15.80
2013,08,20,17,45,15.80
2013,08,20,17,46,15.20